Lær å fly hos oss!

Oslo Flyveklubb har i mange år utdannet flygere til privatflygersetifikat PPL(A). Skolen har godkjenning for å drive utdanning til teoriundervisning til PPL(A), privatflygersertifikat PPL (A) og mørkeflyging.

Gi bort en flytur i gave

På en introduksjonstur vil kandidaten være med på forberedelser til, og gjennomføring av en flytur på en times varighet med en av våre instruktører.

Hvor vi holder til?

Flyplassen ligger i Lillestrøm 10 minutter med tog fra Oslo. Følg storgata fra Lillestrøms sentrum så vill man se plassen på venstre side.
Metar/TAF Gardermoen:

ENGM 051020Z 16014KT 5000 -RADZ BR BKN005 13/12 Q1008 TEMPO 4000 -RADZ BR BKN004

TAF AMD AMD ENGM 0509/0606 19008KT 9999 -RA BKN012 TEMPO 0509/0515 2000 RADZ BR BKN004 BECMG 0515/0517 BKN003 TEMPO 0515/0606 2000 -DZ BR SCT003 BKN006